SCP
0 0 0 0 0 0 0 0 0 0 0 0 0 0 0 0 0 0 0 0 0 0 0 0 0 0 0 0 0 0 0 0 0 0 0 0 0 0 0 0 0 0 0 0 0 0 0 0 0 0 0 0 0 0
0 0 0 0 0 0 0 0 0 0 0 0 0 0 0 0 0 0 0 0 0 0 0 0 0 0 0 0 0 0 0 0 0 0 0 0 0 0 0 0 0 0 0 0 0 0 0 0 0 0 0 0 0 0
0 0 0 0 0 0 0 0 0 0 0 0 0 0 0 0 0 0 0 0 0 0 0 0 0 0 0 0 0 0 0 0 0 0 0 0 0 0 0 0 0 0 0 0 0 0 0 0 0 0 0 0 0 0
0 0 0 0 0 0 0 0 0 0 0 0 0 0 0 0 0 0 0 0 0 0 0 0 0 0 0 0 0 0 0 0 0 0 0 0 0 0 0 0 0 0 0 0 0 0 0 0 0 0 0 0 0 0
0 0 0 0 0 0 0 0 0 0 0 0 0 0 0 0 0 0 0 0 0 0 0 0 0 0 0 0 0 0 0 0 0 0 0 0 0 0 0 0 0 0 0 0 0 0 0 0 0 0 0 0 0 0
0 0 0 0 0 0 0 0 0 0 0 0 0 0 0 0 0 0 0 0 0 0 0 0 0 0 0 0 0 0 0 0 0 0 0 0 0 0 0 0 0 0 0 0 0 0 0 0 0 0 0 0 0 0
0 0 0 0 0 0 0 0 0 0 0 0 0 0 0 0 0 0 0 0 0 0 0 0 0 0 0 0 0 0 0 0 0 0 0 0 0 0 0 0 0 0 0 0 0 0 0 0 0 0 0 0 0 0
0 0 0 0 0 0 0 0 0 0 0 0 0 0 0 0 0 0 0 0 0 0 0 0 0 0 0 0 0 0 0 0 0 0 0 0 0 0 0 0 0 0 0 0 0 0 0 0 0 0 0 0 0 0
0 0 0 0 0 0 0 0 0 0 0 0 0 0 0 0 0 0 0 0 0 0 0 0 0 0 0 0 0 0 0 0 0 0 0 0 0 0 0 0 0 0 0 0 0 0 0 0 0 0 0 0 0 0
0 0 0 0 0 0 0 0 0 0 0 0 0 0 0 0 0 0 0 0 0 0 0 0 0 0 0 0 0 0 0 0 0 0 0 0 0 0 0 0 0 0 0 0 0 0 0 0 0 0 0 0 0 0
0 0 0 0 0 0 0 0 0 0 0 0 0 0 0 0 0 0 0 0 0 0 0 0 0 0 0 0 0 0 0 0 0 0 0 0 0 0 0 0 0 0 0 0 0 0 0 0 0 0 0 0 0 0
0 0 0 0 0 0 0 0 0 0 0 0 0 0 0 0 0 0 0 0 0 0 0 0 0 0 0 0 0 0 0 0 0 0 0 0 0 0 0 0 0 0 0 0 0 0 0 0 0 0 0 0 0 0
0 0 0 0 0 0 0 0 0 0 0 0 0 0 0 0 0 0 0 0 0 0 0 0 0 0 0 0 0 0 0 0 0 0 0 0 0 0 0 0 0 0 0 0 0 0 0 0 0 0 0 0 0 0
0 0 0 0 0 0 0 0 0 0 0 0 0 0 0 0 0 0 0 0 0 0 0 0 0 0 0 0 0 0 0 0 0 0 0 0 0 0 0 0 0 0 0 0 0 0 0 0 0 0 0 0 0 0
0 0 0 0 0 0 0 0 0 0 0 0 0 0 0 0 0 0 0 0 0 0 0 0 0 0 0 0 0 0 0 0 0 0 0 0 0 0 0 0 0 0 0 0 0 0 0 0 0 0 0 0 0 0
0 0 0 0 0 0 0 0 0 0 0 0 0 0 0 0 0 0 0 0 0 0 0 0 0 0 0 0 0 0 0 0 0 0 0 0 0 0 0 0 0 0 0 0 0 0 0 0 0 0 0 0 0 0
0 0 0 0 0 0 0 0 0 0 0 0 0 0 0 0 0 0 0 0 0 0 0 0 0 0 0 0 0 0 0 0 0 0 0 0 0 0 0 0 0 0 0 0 0 0 0 0 0 0 0 0 0 0
0 0 0 -0 0 0 0 0 0 0 0 0 0 0 0 -0 0 0 0 0 0 0 0 0 0 0 0 0 0 0 0 0 0 0 0 0 0 0 0 0 0 0 0 0 0 0 0 0 0 0 0 0 0 0
0 0 0 0 0 0 0 0 0 0 0 0 0 0 0 0 0 0 0 0 0 0 0 0 0 0 0 0 0 0 0 0 0 0 0 0 0 0 0 0 0 0 0 0 0 0 0 0 0 0 0 0 0 0
-0 0 0 0 -0 0 0 0 -0 0 0 0 0 0 0 -0 0 0 0 0 0 0 0 0 0 0 0 0 0 0 0 0 0 0 0 0 0 0 0 0 0 0 0 0 0 0 0 0 0 0 0 0 0 0
0 0 0 0 -0 0 0 0 -0 0 0 0 0 0 0 0 0 0 0 0 0 0 0 0 0 0 0 0 0 0 0 0 0 0 0 0 0 0 0 0 0 0 0 0 0 0 0 0 0 0 0 0 0 -0
0 0 0 0 0 0 0 0 0 0 0 0 0 0 0 -0 -0 0 0 0 0 0 0 0 0 0 0 0 0 0 0 0 0 0 0 0 0 0 0 0 0 0 0 0 0 0 0 0 0 0 0 0 -0 -0
0 0 0 0 -0 0 0 0 0 0 0 0 0 0 0 0 0 0 0 0 0 0 0 0 0 0 0 0 0 0 0 0 0 0 0 0 0 0 0 0 0 0 0 0 0 0 0 0 0 0 0 0 -0 -0
0 0 0 0 0 0 0 0 0 0 0 0 0 0 0 0 0 0 0 0 0 0 0 0 0 0 0 0 0 0 0 0 0 0 0 0 0 0 0 0 0 0 0 0 0 0 0 0 0 0 0 -0 -0 -0
-0 0 0 0 0 0 0 0 0 0 0 0 0 0 0 0 0 0 0 0 0 0 -0 0 0 0 0 0 0 0 0 0 0 0 0 0 0 0 0 0 0 0 0 0 0 0 0 0 0 0 -0 -0 -0 0
0 0 0 0 0 0 0 0 0 0 0 0 0 0 0 0 0 0 0 0 0 0 0 0 0 0 0 0 0 0 0 0 0 0 0 0 0 0 0 0 0 0 0 0 0 0 0 0 0 -0 -0 -0 -0 0
0 0 0 0 0 0 0 0 0 0 0 0 0 0 0 0 0 0 0 0 0 0 0 0 0 0 0 0 0 0 0 0 0 0 0 0 0 0 0 0 0 0 0 0 0 0 0 0 -0 -0 -0 -0 -0 0
0 0 0 0 0 0 0 0 0 0 0 0 0 0 0 0 0 0 0 0 0 0 0 0 0 0 0 0 0 0 0 0 0 0 0 0 0 0 0 0 0 0 0 0 0 0 0 0 -0 -0 0 0 0 0
0 0 0 0 0 0 0 0 0 0 0 0 0 0 0 0 0 0 0 0 0 0 0 0 0 0 0 0 0 0 0 0 0 0 0 0 0 0 0 0 0 0 0 -0 0 0 -0 0 0 0 0 0 0 0
0 0 0 0 0 0 0 0 0 0 0 0 0 0 0 0 0 0 0 0 0 0 0 0 0 0 0 0 0 0 0 0 0 0 0 0 0 0 0 0 0 0 -0 -0 0 0 -0 -0 0 0 0 0 0 0
0 0 0 0 0 0 0 0 0 0 0 0 0 0 0 0 0 0 0 0 0 0 0 0 0 0 0 0 0 0 0 0 0 0 0 0 0 0 0 0 0 0 -0 -0 -0 -0 0 0 0 0 0 0 0 0
0 0 0 0 0 0 0 0 0 0 0 0 0 0 0 0 0 0 0 0 0 0 0 0 0 0 0 0 0 0 0 0 0 0 -0 0 0 0 0 0 0 -0 0 -0 -0 -0 0 0 0 0 0 -0 -0 -0
0 0 0 0 0 0 0 0 0 0 0 0 0 0 0 0 0 0 0 0 0 0 0 0 0 0 0 0 0 0 0 0 0 -0 -0 0 0 0 -0 -0 0 0 -0 0 0 0 0 0 0 0 0 0 -0 -0
Wind_Speed_500mb
40 39 38 40 45 47 44 45 42 39 38 40 35 32 29 25 18 13 14 14 10 8 17 13 14 12 8 9 6 10 8 6 4 7 6 6 6 5 5 2 6 10 11 6 5 8 9 20 11 9 13 17 24 31
43 41 40 39 40 44 48 41 43 42 38 39 35 35 33 29 24 17 16 16 16 16 15 16 18 25 21 15 10 19 3 6 8 6 4 5 5 6 5 5 4 8 8 5 14 6 4 24 21 21 29 27 32 31
45 44 43 41 40 41 43 45 40 44 40 38 37 38 37 32 28 23 19 18 16 17 31 30 26 33 37 34 17 7 8 11 9 9 10 4 5 6 8 9 7 9 11 6 5 6 18 16 21 28 26 24 34 38
43 45 45 44 42 41 41 43 42 42 39 37 39 41 41 36 33 27 25 23 20 10 8 7 10 12 19 38 36 28 16 13 13 12 5 4 4 10 4 1 7 3 20 10 10 22 22 13 11 14 19 30 35 35
44 44 44 45 44 43 41 40 45 42 42 42 38 38 38 34 34 32 32 32 28 18 6 12 18 18 15 23 35 27 22 21 14 8 5 5 7 9 3 3 9 19 11 10 9 11 10 15 13 16 27 31 32 38
43 42 41 44 43 44 42 41 41 47 38 44 42 39 38 41 41 40 25 42 42 37 8 6 9 13 22 26 24 22 23 18 13 8 5 6 9 8 7 6 11 24 28 26 9 12 14 18 21 23 25 29 32 40
40 37 40 40 40 44 42 41 40 42 44 37 45 39 43 49 55 56 14 13 33 44 10 8 6 11 29 32 26 24 21 10 9 8 7 6 8 12 5 7 10 21 25 24 23 22 20 13 13 22 24 28 32 40
38 37 38 39 39 44 40 41 38 39 42 38 37 38 41 37 52 56 61 27 26 35 12 5 4 8 32 12 12 17 14 12 9 6 6 7 9 7 9 26 15 14 18 23 23 21 17 19 20 18 23 28 36 42
39 39 34 37 38 42 38 39 36 36 36 36 31 28 30 32 37 44 50 42 55 15 9 10 8 8 32 13 12 12 12 7 8 10 8 15 7 11 17 18 20 26 21 11 10 7 7 12 13 20 25 32 40 44
38 38 34 31 35 35 36 34 33 31 27 23 19 13 10 16 34 41 30 30 26 16 12 11 11 9 26 12 8 13 7 6 8 8 15 8 8 36 30 21 16 13 17 19 13 6 5 6 16 23 27 36 40 43
37 37 37 30 31 34 21 19 24 18 22 18 17 15 16 36 43 25 16 17 21 11 19 18 30 12 22 14 9 9 8 10 7 8 10 6 7 11 14 22 18 25 19 13 12 8 3 10 16 22 30 38 42 40
35 35 32 31 28 28 26 23 22 27 15 24 9 15 31 14 8 8 9 12 12 14 21 25 25 18 21 18 9 14 7 6 8 21 7 6 8 18 26 27 24 22 18 16 16 9 3 8 17 26 36 39 37 38
31 32 35 34 23 28 28 25 36 36 22 20 16 11 11 12 9 14 17 10 11 18 24 27 20 24 16 13 9 6 10 8 22 8 7 8 7 30 35 33 29 24 22 21 16 7 1 8 19 28 39 36 34 37
33 33 29 35 24 25 30 30 40 39 25 21 18 10 10 9 10 11 7 11 13 21 47 49 33 12 11 10 9 10 5 12 9 6 10 7 29 39 41 35 31 30 27 21 14 7 9 15 27 34 40 32 32 39
30 32 35 36 24 25 25 45 38 42 20 12 12 10 12 14 12 10 17 5 16 46 62 39 19 7 6 7 5 7 10 10 11 8 6 14 39 49 43 37 33 30 26 19 11 8 11 18 28 37 36 30 32 39
28 31 35 29 18 24 32 48 27 29 12 9 11 8 13 7 11 9 14 13 29 51 50 17 10 9 9 7 10 13 14 12 7 7 14 29 48 46 41 36 31 25 22 15 11 11 13 22 27 39 31 28 33 39
30 42 30 22 20 25 37 31 19 14 20 13 13 27 18 9 12 12 17 25 42 47 12 10 14 12 12 9 12 8 9 6 12 24 31 44 47 45 38 28 25 25 19 17 17 14 18 23 33 36 29 27 33 39
33 26 21 25 31 40 40 26 16 9 12 16 11 17 16 10 12 18 18 38 35 50 19 6 14 10 11 16 9 10 10 15 22 30 37 41 42 36 29 24 21 21 23 22 23 24 25 29 34 31 26 28 33 40
28 26 30 34 46 32 20 16 15 10 16 8 13 16 8 17 19 24 19 40 35 47 9 6 6 7 7 7 15 23 29 31 35 43 44 40 36 28 22 18 15 15 19 25 27 24 27 27 27 23 23 27 33 39
24 23 32 43 59 22 14 13 10 8 7 9 11 18 9 8 8 5 18 37 34 33 9 5 4 7 12 23 26 29 31 38 47 43 37 34 30 23 16 12 10 12 17 19 17 17 20 23 22 20 22 26 34 33
23 23 30 39 39 13 8 9 8 7 6 6 14 20 8 20 8 8 4 16 6 9 8 9 11 23 32 31 27 29 32 35 38 36 34 30 29 23 16 10 11 10 15 15 18 19 20 22 20 18 19 27 33 26
27 31 35 25 5 5 3 6 3 5 4 3 12 11 9 8 9 11 9 7 4 4 8 17 30 33 36 35 38 40 41 37 32 27 22 20 26 18 14 13 14 12 14 15 17 18 21 22 17 14 16 19 19 18
34 27 9 5 4 5 2 10 5 6 1 6 9 7 4 7 9 15 3 3 2 11 14 17 21 24 30 36 37 37 35 33 26 17 14 17 15 15 16 21 18 15 17 18 17 19 21 17 13 11 12 13 10 12
29 10 6 7 5 6 6 5 5 6 9 3 2 4 5 5 10 1 4 7 11 16 27 28 27 29 31 35 30 31 30 20 16 15 20 18 15 12 12 14 18 21 21 22 21 21 18 14 9 7 8 7 9 9
12 11 10 8 10 9 8 9 5 1 4 5 6 3 5 7 5 6 5 8 15 14 20 28 27 21 23 30 29 29 29 26 17 14 19 20 17 17 18 18 17 18 21 22 21 17 14 14 6 6 6 5 7 14
8 10 13 14 12 9 7 8 8 8 5 4 6 7 6 4 7 5 5 6 7 13 13 24 27 26 31 30 25 29 23 17 18 17 17 20 23 18 19 19 19 20 20 18 16 11 15 11 4 5 7 2 10 27
2 6 9 11 8 7 6 6 10 5 3 8 6 10 7 7 6 2 1 2 7 13 14 17 22 27 26 30 30 23 16 15 18 20 20 18 21 19 16 15 14 12 8 7 6 12 10 6 6 17 16 10 29 25
4 4 9 13 6 3 4 4 5 7 5 5 6 3 5 2 4 5 4 10 12 14 13 16 19 22 23 23 23 21 20 16 15 16 14 18 18 13 8 5 2 3 5 9 22 15 8 3 23 24 28 25 15 14
2 4 12 13 8 10 8 5 4 5 3 7 4 3 3 4 7 15 20 20 22 23 22 21 20 20 19 20 21 25 21 21 21 23 19 15 14 16 9 5 4 8 10 20 21 15 9 26 25 42 25 15 13 30
8 8 9 8 5 4 8 8 8 10 10 13 11 8 8 11 16 20 21 17 17 15 12 12 15 18 19 20 23 25 26 24 19 16 14 12 10 12 11 11 9 11 20 24 33 27 31 43 32 21 23 23 25 20
7 8 9 8 6 9 10 14 19 19 14 15 16 14 11 8 13 16 17 17 16 15 14 14 15 16 19 18 18 18 17 17 12 8 8 13 17 13 9 14 17 20 28 29 32 31 24 19 21 26 23 19 19 15
8 7 7 5 5 6 8 6 7 9 9 8 8 8 6 5 4 12 15 18 18 17 18 17 15 15 16 18 19 20 18 25 19 9 8 3 9 10 12 20 30 35 31 28 31 29 23 20 17 15 18 18 18 19
10 12 11 8 5 3 5 7 7 5 7 4 4 3 2 1 3 6 8 17 19 23 25 26 28 26 21 19 17 18 18 19 15 11 8 11 18 22 21 31 36 34 32 32 30 25 22 21 20 19 20 21 22 25
Wind_Direction_500mb
271 271 270 266 258 254 257 254 259 260 262 260 258 256 256 259 261 264 267 262 265 270 276 248 231 212 191 187 185 161 153 193 127 178 195 183 211 175 219 184 196 192 175 193 172 229 266 163 139 203 278 285 300 303
269 268 268 268 266 260 251 255 250 250 256 262 255 249 249 249 249 252 261 260 255 262 266 278 261 239 238 236 205 183 239 162 163 121 188 143 182 179 187 230 174 212 214 189 203 239 159 195 240 268 287 285 299 303
266 266 264 263 266 265 258 252 253 247 249 256 251 250 246 243 241 242 248 255 262 278 286 271 269 249 234 226 212 200 221 195 192 160 142 120 221 166 187 223 202 211 181 225 196 205 242 254 279 290 287 296 313 318
277 267 262 260 259 262 260 250 248 245 246 249 247 241 241 236 230 234 243 246 244 261 275 281 245 247 233 224 220 222 234 199 176 162 132 153 211 201 211 359 241 204 163 200 246 274 278 274 300 300 301 314 318 317
275 273 266 260 256 256 258 254 242 246 243 245 247 238 234 231 227 243 242 242 233 226 281 291 298 251 238 213 200 214 222 215 182 158 168 188 147 171 162 235 235 189 188 188 229 218 229 276 306 305 308 315 321 316
271 272 265 266 257 253 254 255 246 239 245 239 240 233 239 228 227 233 244 250 232 228 255 281 259 215 196 178 186 188 181 184 180 166 181 201 191 190 200 233 242 208 218 225 233 265 257 285 299 310 305 321 323 322
266 266 260 263 262 256 248 251 250 243 240 247 239 236 238 227 228 214 202 199 210 203 220 263 244 197 186 170 167 168 172 177 179 183 206 182 180 188 240 235 235 216 222 224 240 260 280 293 297 312 315 322 325 326
261 256 254 258 261 263 250 246 247 246 240 243 246 241 240 235 231 234 222 227 194 174 200 253 228 186 177 167 157 165 159 161 184 182 179 190 153 214 251 236 223 207 213 227 244 257 266 287 306 314 324 328 331 330
257 252 248 260 254 264 257 242 241 242 241 235 246 237 240 224 219 219 226 203 171 180 194 208 201 196 172 158 143 150 159 165 191 213 208 173 169 222 231 228 215 215 211 212 227 238 262 288 313 328 331 332 329 328
254 243 240 251 248 260 265 240 235 241 234 226 227 195 205 197 205 204 157 152 176 213 232 238 193 179 170 159 142 134 170 176 191 200 154 217 246 248 245 225 215 206 215 224 216 200 244 296 325 326 330 331 326 329
247 243 241 234 251 261 257 244 228 231 209 213 201 201 199 166 166 180 143 155 178 206 208 212 187 151 180 175 144 192 160 166 210 166 200 209 259 229 188 195 205 208 202 221 212 205 240 314 326 332 335 326 328 330
240 237 238 231 247 258 234 226 205 185 188 202 190 170 159 198 197 148 169 178 193 208 186 176 173 155 161 172 140 177 173 176 222 146 202 235 237 176 156 145 143 156 183 184 173 180 285 9 358 339 331 327 328 332
238 235 235 224 251 240 231 233 186 185 201 208 187 187 191 186 206 191 186 187 187 174 168 163 155 145 148 174 111 157 173 180 130 188 225 233 165 167 159 154 159 172 177 171 173 188 251 1 343 334 337 331 332 334
238 231 230 221 228 235 237 211 181 195 204 188 167 208 211 188 228 203 210 150 177 161 155 155 148 149 148 160 149 162 116 144 188 224 222 207 185 170 163 165 176 180 178 180 190 228 287 316 329 332 334 330 333 335
231 227 225 217 217 235 229 185 193 209 195 205 176 204 221 229 250 241 233 198 158 163 147 149 128 136 141 129 181 118 165 204 216 217 206 190 175 170 168 177 186 187 187 195 214 273 302 317 325 327 328 329 332 335
222 216 211 207 211 231 206 195 186 224 205 207 228 196 226 276 244 219 225 215 162 159 143 133 143 155 193 169 168 196 179 211 206 199 186 168 166 169 174 183 190 197 201 208 239 276 308 317 317 324 319 326 332 333
209 210 203 204 216 217 194 191 212 215 184 205 225 210 191 220 275 250 210 193 167 170 197 156 165 178 128 176 188 186 202 191 177 171 162 162 166 169 175 186 198 208 221 234 258 282 302 304 316 318 315 321 330 331
200 185 182 187 188 176 181 201 225 244 221 214 209 210 169 146 273 282 223 189 176 185 191 196 135 175 174 173 179 177 174 159 157 163 157 158 159 168 181 193 207 227 231 247 269 284 294 304 313 312 311 321 327 329
180 178 189 189 179 171 175 195 217 252 228 224 214 189 171 138 300 258 245 191 186 192 161 181 161 180 180 175 145 156 165 158 150 149 150 155 161 172 186 200 209 231 253 267 276 288 301 307 309 312 312 323 326 329
173 193 194 184 185 189 174 203 207 277 200 199 183 183 177 133 294 312 188 169 165 172 199 218 218 184 149 147 151 160 160 161 157 152 156 163 171 177 182 191 209 247 272 287 297 299 303 308 307 305 315 324 325 328
185 183 167 177 203 258 156 170 192 235 264 210 169 179 148 155 184 247 319 129 117 124 173 205 150 135 136 133 138 146 153 160 166 168 169 173 184 182 179 216 242 279 289 284 285 289 296 304 303 300 314 325 330 330
171 170 171 179 171 218 327 168 166 214 249 247 150 134 131 123 161 184 154 83 119 282 162 138 159 138 136 141 140 140 134 135 136 140 156 174 186 197 217 238 246 272 283 288 299 290 292 291 287 298 316 338 8 14
163 162 140 126 101 175 167 175 200 201 215 168 148 122 119 174 168 160 125 112 147 170 156 161 155 157 152 147 148 150 151 150 147 145 175 184 191 210 231 249 258 266 283 284 290 296 294 273 269 282 310 343 1 5
163 145 167 165 178 179 174 189 207 204 179 187 114 81 93 103 143 183 122 170 207 199 198 195 184 178 178 169 166 175 174 183 182 199 197 197 219 240 251 271 271 268 274 283 296 301 287 236 257 292 291 303 322 338
147 187 176 176 197 185 202 148 176 178 146 143 150 117 156 155 169 187 190 203 211 223 217 200 193 191 183 184 196 194 185 188 213 235 226 231 245 245 241 262 269 269 268 281 294 292 237 220 239 299 285 300 313 323
229 168 185 175 164 199 173 139 164 163 161 157 165 114 125 160 194 210 204 190 172 162 161 180 183 188 184 182 186 185 197 236 240 231 223 225 232 232 239 254 260 266 277 279 278 246 213 207 236 276 165 217 77 109
175 168 185 181 182 163 168 112 125 127 204 180 172 173 159 176 202 152 242 161 170 188 191 182 184 187 187 191 194 209 224 231 227 229 223 222 220 219 230 254 279 275 242 269 232 165 177 193 231 165 170 138 130 116
256 188 156 162 136 90 113 109 127 177 168 126 118 136 178 153 108 125 129 113 114 128 168 190 190 190 197 204 212 218 212 198 205 213 199 182 186 198 206 192 154 158 152 149 146 144 151 191 165 164 133 109 132 128
44 77 125 97 98 66 42 19 51 67 81 129 126 116 110 78 128 127 127 110 110 108 110 114 130 141 148 157 165 178 190 183 183 172 181 192 191 190 173 159 114 151 157 154 136 123 69 167 159 121 106 80 124 130
33 72 89 52 56 60 29 41 64 79 89 118 108 102 88 94 132 133 132 135 115 99 107 127 144 140 146 153 162 165 168 177 190 208 220 228 225 205 216 227 211 196 169 157 152 118 99 119 114 100 96 107 113 111
102 88 77 54 75 73 70 85 87 89 87 86 111 118 114 132 161 170 165 167 166 157 142 132 130 149 165 169 175 177 180 196 198 193 236 235 218 198 224 198 192 186 170 165 167 144 128 111 117 115 110 117 124 128
59 64 113 93 96 73 33 68 57 57 46 60 56 85 108 119 140 190 208 206 202 197 197 189 168 157 163 170 174 176 164 147 134 102 25 42 196 187 167 160 157 153 152 153 156 151 159 169 162 134 123 129 131 122
89 85 95 103 97 59 45 65 54 71 51 62 74 84 41 104 211 237 231 220 224 222 214 212 209 203 193 180 167 160 151 150 142 77 97 135 99 118 158 155 149 143 144 147 146 146 149 150 146 141 136 135 136 133
Wind_Speed_850mb
40 39 38 40 45 47 44 45 42 39 38 40 35 32 29 25 18 13 14 14 10 8 17 13 14 12 8 9 6 10 8 6 4 7 6 6 6 5 5 2 6 10 11 6 5 8 9 20 11 9 13 17 24 31
43 41 40 39 40 44 48 41 43 42 38 39 35 35 33 29 24 17 16 16 16 16 15 16 18 25 21 15 10 19 3 6 8 6 4 5 5 6 5 5 4 8 8 5 14 6 4 24 21 21 29 27 32 31
45 44 43 41 40 41 43 45 40 44 40 38 37 38 37 32 28 23 19 18 16 17 31 30 26 33 37 34 17 7 8 11 9 9 10 4 5 6 8 9 7 9 11 6 5 6 18 16 21 28 26 24 34 38
43 45 45 44 42 41 41 43 42 42 39 37 39 41 41 36 33 27 25 23 20 10 8 7 10 12 19 38 36 28 16 13 13 12 5 4 4 10 4 1 7 3 20 10 10 22 22 13 11 14 19 30 35 35
44 44 44 45 44 43 41 40 45 42 42 42 38 38 38 34 34 32 32 32 28 18 6 12 18 18 15 23 35 27 22 21 14 8 5 5 7 9 3 3 9 19 11 10 9 11 10 15 13 16 27 31 32 38
43 42 41 44 43 44 42 41 41 47 38 44 42 39 38 41 41 40 25 42 42 37 8 6 9 13 22 26 24 22 23 18 13 8 5 6 9 8 7 6 11 24 28 26 9 12 14 18 21 23 25 29 32 40
40 37 40 40 40 44 42 41 40 42 44 37 45 39 43 49 55 56 14 13 33 44 10 8 6 11 29 32 26 24 21 10 9 8 7 6 8 12 5 7 10 21 25 24 23 22 20 13 13 22 24 28 32 40
38 37 38 39 39 44 40 41 38 39 42 38 37 38 41 37 52 56 61 27 26 35 12 5 4 8 32 12 12 17 14 12 9 6 6 7 9 7 9 26 15 14 18 23 23 21 17 19 20 18 23 28 36 42
39 39 34 37 38 42 38 39 36 36 36 36 31 28 30 32 37 44 50 42 55 15 9 10 8 8 32 13 12 12 12 7 8 10 8 15 7 11 17 18 20 26 21 11 10 7 7 12 13 20 25 32 40 44
38 38 34 31 35 35 36 34 33 31 27 23 19 13 10 16 34 41 30 30 26 16 12 11 11 9 26 12 8 13 7 6 8 8 15 8 8 36 30 21 16 13 17 19 13 6 5 6 16 23 27 36 40 43
37 37 37 30 31 34 21 19 24 18 22 18 17 15 16 36 43 25 16 17 21 11 19 18 30 12 22 14 9 9 8 10 7 8 10 6 7 11 14 22 18 25 19 13 12 8 3 10 16 22 30 38 42 40
35 35 32 31 28 28 26 23 22 27 15 24 9 15 31 14 8 8 9 12 12 14 21 25 25 18 21 18 9 14 7 6 8 21 7 6 8 18 26 27 24 22 18 16 16 9 3 8 17 26 36 39 37 38
31 32 35 34 23 28 28 25 36 36 22 20 16 11 11 12 9 14 17 10 11 18 24 27 20 24 16 13 9 6 10 8 22 8 7 8 7 30 35 33 29 24 22 21 16 7 1 8 19 28 39 36 34 37
33 33 29 35 24 25 30 30 40 39 25 21 18 10 10 9 10 11 7 11 13 21 47 49 33 12 11 10 9 10 5 12 9 6 10 7 29 39 41 35 31 30 27 21 14 7 9 15 27 34 40 32 32 39
30 32 35 36 24 25 25 45 38 42 20 12 12 10 12 14 12 10 17 5 16 46 62 39 19 7 6 7 5 7 10 10 11 8 6 14 39 49 43 37 33 30 26 19 11 8 11 18 28 37 36 30 32 39
28 31 35 29 18 24 32 48 27 29 12 9 11 8 13 7 11 9 14 13 29 51 50 17 10 9 9 7 10 13 14 12 7 7 14 29 48 46 41 36 31 25 22 15 11 11 13 22 27 39 31 28 33 39
30 42 30 22 20 25 37 31 19 14 20 13 13 27 18 9 12 12 17 25 42 47 12 10 14 12 12 9 12 8 9 6 12 24 31 44 47 45 38 28 25 25 19 17 17 14 18 23 33 36 29 27 33 39
33 26 21 25 31 40 40 26 16 9 12 16 11 17 16 10 12 18 18 38 35 50 19 6 14 10 11 16 9 10 10 15 22 30 37 41 42 36 29 24 21 21 23 22 23 24 25 29 34 31 26 28 33 40
28 26 30 34 46 32 20 16 15 10 16 8 13 16 8 17 19 24 19 40 35 47 9 6 6 7 7 7 15 23 29 31 35 43 44 40 36 28 22 18 15 15 19 25 27 24 27 27 27 23 23 27 33 39
24 23 32 43 59 22 14 13 10 8 7 9 11 18 9 8 8 5 18 37 34 33 9 5 4 7 12 23 26 29 31 38 47 43 37 34 30 23 16 12 10 12 17 19 17 17 20 23 22 20 22 26 34 33
23 23 30 39 39 13 8 9 8 7 6 6 14 20 8 20 8 8 4 16 6 9 8 9 11 23 32 31 27 29 32 35 38 36 34 30 29 23 16 10 11 10 15 15 18 19 20 22 20 18 19 27 33 26
27 31 35 25 5 5 3 6 3 5 4 3 12 11 9 8 9 11 9 7 4 4 8 17 30 33 36 35 38 40 41 37 32 27 22 20 26 18 14 13 14 12 14 15 17 18 21 22 17 14 16 19 19 18
34 27 9 5 4 5 2 10 5 6 1 6 9 7 4 7 9 15 3 3 2 11 14 17 21 24 30 36 37 37 35 33 26 17 14 17 15 15 16 21 18 15 17 18 17 19 21 17 13 11 12 13 10 12
29 10 6 7 5 6 6 5 5 6 9 3 2 4 5 5 10 1 4 7 11 16 27 28 27 29 31 35 30 31 30 20 16 15 20 18 15 12 12 14 18 21 21 22 21 21 18 14 9 7 8 7 9 9
12 11 10 8 10 9 8 9 5 1 4 5 6 3 5 7 5 6 5 8 15 14 20 28 27 21 23 30 29 29 29 26 17 14 19 20 17 17 18 18 17 18 21 22 21 17 14 14 6 6 6 5 7 14
8 10 13 14 12 9 7 8 8 8 5 4 6 7 6 4 7 5 5 6 7 13 13 24 27 26 31 30 25 29 23 17 18 17 17 20 23 18 19 19 19 20 20 18 16 11 15 11 4 5 7 2 10 27
2 6 9 11 8 7 6 6 10 5 3 8 6 10 7 7 6 2 1 2 7 13 14 17 22 27 26 30 30 23 16 15 18 20 20 18 21 19 16 15 14 12 8 7 6 12 10 6 6 17 16 10 29 25
4 4 9 13 6 3 4 4 5 7 5 5 6 3 5 2 4 5 4 10 12 14 13 16 19 22 23 23 23 21 20 16 15 16 14 18 18 13 8 5 2 3 5 9 22 15 8 3 23 24 28 25 15 14
2 4 12 13 8 10 8 5 4 5 3 7 4 3 3 4 7 15 20 20 22 23 22 21 20 20 19 20 21 25 21 21 21 23 19 15 14 16 9 5 4 8 10 20 21 15 9 26 25 42 25 15 13 30
8 8 9 8 5 4 8 8 8 10 10 13 11 8 8 11 16 20 21 17 17 15 12 12 15 18 19 20 23 25 26 24 19 16 14 12 10 12 11 11 9 11 20 24 33 27 31 43 32 21 23 23 25 20
7 8 9 8 6 9 10 14 19 19 14 15 16 14 11 8 13 16 17 17 16 15 14 14 15 16 19 18 18 18 17 17 12 8 8 13 17 13 9 14 17 20 28 29 32 31 24 19 21 26 23 19 19 15
8 7 7 5 5 6 8 6 7 9 9 8 8 8 6 5 4 12 15 18 18 17 18 17 15 15 16 18 19 20 18 25 19 9 8 3 9 10 12 20 30 35 31 28 31 29 23 20 17 15 18 18 18 19
10 12 11 8 5 3 5 7 7 5 7 4 4 3 2 1 3 6 8 17 19 23 25 26 28 26 21 19 17 18 18 19 15 11 8 11 18 22 21 31 36 34 32 32 30 25 22 21 20 19 20 21 22 25
Wind_Direction_850mb
271 271 270 266 258 254 257 254 259 260 262 260 258 256 256 259 261 264 267 262 265 270 276 248 231 212 191 187 185 161 153 193 127 178 195 183 211 175 219 184 196 192 175 193 172 229 266 163 139 203 278 285 300 303
269 268 268 268 266 260 251 255 250 250 256 262 255 249 249 249 249 252 261 260 255 262 266 278 261 239 238 236 205 183 239 162 163 121 188 143 182 179 187 230 174 212 214 189 203 239 159 195 240 268 287 285 299 303
266 266 264 263 266 265 258 252 253 247 249 256 251 250 246 243 241 242 248 255 262 278 286 271 269 249 234 226 212 200 221 195 192 160 142 120 221 166 187 223 202 211 181 225 196 205 242 254 279 290 287 296 313 318
277 267 262 260 259 262 260 250 248 245 246 249 247 241 241 236 230 234 243 246 244 261 275 281 245 247 233 224 220 222 234 199 176 162 132 153 211 201 211 359 241 204 163 200 246 274 278 274 300 300 301 314 318 317
275 273 266 260 256 256 258 254 242 246 243 245 247 238 234 231 227 243 242 242 233 226 281 291 298 251 238 213 200 214 222 215 182 158 168 188 147 171 162 235 235 189 188 188 229 218 229 276 306 305 308 315 321 316
271 272 265 266 257 253 254 255 246 239 245 239 240 233 239 228 227 233 244 250 232 228 255 281 259 215 196 178 186 188 181 184 180 166 181 201 191 190 200 233 242 208 218 225 233 265 257 285 299 310 305 321 323 322
266 266 260 263 262 256 248 251 250 243 240 247 239 236 238 227 228 214 202 199 210 203 220 263 244 197 186 170 167 168 172 177 179 183 206 182 180 188 240 235 235 216 222 224 240 260 280 293 297 312 315 322 325 326
261 256 254 258 261 263 250 246 247 246 240 243 246 241 240 235 231 234 222 227 194 174 200 253 228 186 177 167 157 165 159 161 184 182 179 190 153 214 251 236 223 207 213 227 244 257 266 287 306 314 324 328 331 330
257 252 248 260 254 264 257 242 241 242 241 235 246 237 240 224 219 219 226 203 171 180 194 208 201 196 172 158 143 150 159 165 191 213 208 173 169 222 231 228 215 215 211 212 227 238 262 288 313 328 331 332 329 328
254 243 240 251 248 260 265 240 235 241 234 226 227 195 205 197 205 204 157 152 176 213 232 238 193 179 170 159 142 134 170 176 191 200 154 217 246 248 245 225 215 206 215 224 216 200 244 296 325 326 330 331 326 329
247 243 241 234 251 261 257 244 228 231 209 213 201 201 199 166 166 180 143 155 178 206 208 212 187 151 180 175 144 192 160 166 210 166 200 209 259 229 188 195 205 208 202 221 212 205 240 314 326 332 335 326 328 330
240 237 238 231 247 258 234 226 205 185 188 202 190 170 159 198 197 148 169 178 193 208 186 176 173 155 161 172 140 177 173 176 222 146 202 235 237 176 156 145 143 156 183 184 173 180 285 9 358 339 331 327 328 332
238 235 235 224 251 240 231 233 186 185 201 208 187 187 191 186 206 191 186 187 187 174 168 163 155 145 148 174 111 157 173 180 130 188 225 233 165 167 159 154 159 172 177 171 173 188 251 1 343 334 337 331 332 334
238 231 230 221 228 235 237 211 181 195 204 188 167 208 211 188 228 203 210 150 177 161 155 155 148 149 148 160 149 162 116 144 188 224 222 207 185 170 163 165 176 180 178 180 190 228 287 316 329 332 334 330 333 335
231 227 225 217 217 235 229 185 193 209 195 205 176 204 221 229 250 241 233 198 158 163 147 149 128 136 141 129 181 118 165 204 216 217 206 190 175 170 168 177 186 187 187 195 214 273 302 317 325 327 328 329 332 335
222 216 211 207 211 231 206 195 186 224 205 207 228 196 226 276 244 219 225 215 162 159 143 133 143 155 193 169 168 196 179 211 206 199 186 168 166 169 174 183 190 197 201 208 239 276 308 317 317 324 319 326 332 333
209 210 203 204 216 217 194 191 212 215 184 205 225 210 191 220 275 250 210 193 167 170 197 156 165 178 128 176 188 186 202 191 177 171 162 162 166 169 175 186 198 208 221 234 258 282 302 304 316 318 315 321 330 331
200 185 182 187 188 176 181 201 225 244 221 214 209 210 169 146 273 282 223 189 176 185 191 196 135 175 174 173 179 177 174 159 157 163 157 158 159 168 181 193 207 227 231 247 269 284 294 304 313 312 311 321 327 329
180 178 189 189 179 171 175 195 217 252 228 224 214 189 171 138 300 258 245 191 186 192 161 181 161 180 180 175 145 156 165 158 150 149 150 155 161 172 186 200 209 231 253 267 276 288 301 307 309 312 312 323 326 329
173 193 194 184 185 189 174 203 207 277 200 199 183 183 177 133 294 312 188 169 165 172 199 218 218 184 149 147 151 160 160 161 157 152 156 163 171 177 182 191 209 247 272 287 297 299 303 308 307 305 315 324 325 328
185 183 167 177 203 258 156 170 192 235 264 210 169 179 148 155 184 247 319 129 117 124 173 205 150 135 136 133 138 146 153 160 166 168 169 173 184 182 179 216 242 279 289 284 285 289 296 304 303 300 314 325 330 330
171 170 171 179 171 218 327 168 166 214 249 247 150 134 131 123 161 184 154 83 119 282 162 138 159 138 136 141 140 140 134 135 136 140 156 174 186 197 217 238 246 272 283 288 299 290 292 291 287 298 316 338 8 14
163 162 140 126 101 175 167 175 200 201 215 168 148 122 119 174 168 160 125 112 147 170 156 161 155 157 152 147 148 150 151 150 147 145 175 184 191 210 231 249 258 266 283 284 290 296 294 273 269 282 310 343 1 5
163 145 167 165 178 179 174 189 207 204 179 187 114 81 93 103 143 183 122 170 207 199 198 195 184 178 178 169 166 175 174 183 182 199 197 197 219 240 251 271 271 268 274 283 296 301 287 236 257 292 291 303 322 338
147 187 176 176 197 185 202 148 176 178 146 143 150 117 156 155 169 187 190 203 211 223 217 200 193 191 183 184 196 194 185 188 213 235 226 231 245 245 241 262 269 269 268 281 294 292 237 220 239 299 285 300 313 323
229 168 185 175 164 199 173 139 164 163 161 157 165 114 125 160 194 210 204 190 172 162 161 180 183 188 184 182 186 185 197 236 240 231 223 225 232 232 239 254 260 266 277 279 278 246 213 207 236 276 165 217 77 109
175 168 185 181 182 163 168 112 125 127 204 180 172 173 159 176 202 152 242 161 170 188 191 182 184 187 187 191 194 209 224 231 227 229 223 222 220 219 230 254 279 275 242 269 232 165 177 193 231 165 170 138 130 116
256 188 156 162 136 90 113 109 127 177 168 126 118 136 178 153 108 125 129 113 114 128 168 190 190 190 197 204 212 218 212 198 205 213 199 182 186 198 206 192 154 158 152 149 146 144 151 191 165 164 133 109 132 128
44 77 125 97 98 66 42 19 51 67 81 129 126 116 110 78 128 127 127 110 110 108 110 114 130 141 148 157 165 178 190 183 183 172 181 192 191 190 173 159 114 151 157 154 136 123 69 167 159 121 106 80 124 130
33 72 89 52 56 60 29 41 64 79 89 118 108 102 88 94 132 133 132 135 115 99 107 127 144 140 146 153 162 165 168 177 190 208 220 228 225 205 216 227 211 196 169 157 152 118 99 119 114 100 96 107 113 111
102 88 77 54 75 73 70 85 87 89 87 86 111 118 114 132 161 170 165 167 166 157 142 132 130 149 165 169 175 177 180 196 198 193 236 235 218 198 224 198 192 186 170 165 167 144 128 111 117 115 110 117 124 128
59 64 113 93 96 73 33 68 57 57 46 60 56 85 108 119 140 190 208 206 202 197 197 189 168 157 163 170 174 176 164 147 134 102 25 42 196 187 167 160 157 153 152 153 156 151 159 169 162 134 123 129 131 122
89 85 95 103 97 59 45 65 54 71 51 62 74 84 41 104 211 237 231 220 224 222 214 212 209 203 193 180 167 160 151 150 142 77 97 135 99 118 158 155 149 143 144 147 146 146 149 150 146 141 136 135 136 133